Location: Newark
(40.9464°N, 15.0486°E)
Time: 02:39:34
(UTC+00:00)

LightSail 2 - Visible Passes

Search period start: 22 January 2021 00:00
Search period end: 01 February 2021 00:00
Orbit: 684 x 713 km, 24.0° (Epoch: 21 January)

Date Brightness Start Highest point End Pass type
(mag) Time Alt. Az. Time Alt. Az. Time Alt. Az.
26 Jan 7.7 05:34:31 10° SSW 05:35:37 11° S 05:36:44 10° SSE visible
27 Jan 7.7 04:32:59 10° S 04:33:20 10° S 04:33:42 10° S visible
28 Jan 7.6 05:14:20 10° SSW 05:15:15 10° S 05:16:11 10° S visible
29 Jan 7.5 04:11:53 10° SSW 04:12:56 11° S 04:14:00 10° SSE visible
31 Jan 7.5 03:52:39 10° S 03:52:39 10° S 03:53:19 10° S visible
